Pendleton, OR

11:17 PM PDT on September 25, 2017 (GMT -0700)
Eastern Oreg Regional At Pendleton

Weather History for KPDT - December, 2012

Change the Weather History Date:

Wednesday, December 12, 2012

  Actual Average Record
Temperature  
Mean Temperature 37 °F 33 °F  
Max Temperature 44 °F 39 °F 75 °F (1921)
Min Temperature 30 °F 27 °F -23 °F (1919)
Degree Days  
Heating Degree Days 28 32  
Month to date heating degree days 254 368  
Since 1 July heating degree days 1399 1621  
Cooling Degree Days 0 0  
Month to date cooling degree days 0 0  
Year to date cooling degree days 611 636  
Moisture  
Dew Point 33 °F    
Average Humidity 82    
Maximum Humidity 96    
Minimum Humidity 67    
Precipitation  
Precipitation 0.00 in 0.04 in 0.66 in (2014)
Month to date precipitation 0.72 0.58  
Year to date precipitation 13.97 11.77  
Snow  
Snow 0.00 in 0.20 in 3.40 in (2009)
Month to date snowfall 0.1 2.0  
Year to date snowfall 6.0 11.2  
Since 1 July snowfall 0.1 3.5  
Snow Depth 0.00 in    
Sea Level Pressure  
Sea Level Pressure 29.78 in    
Wind  
Wind Speed 7 mph (SW)    
Max Wind Speed 18 mph    
Max Gust Speed 23 mph    
Visibility 10 miles    
Events      
T = Trace of Precipitation, MM = Missing Value Source: NWS Daily Summary

Daily Weather History Graph

Daily Weather History Graph

Search for Another Location

Airport or City:

Trip Planner

Search our weather history database for the weather conditions in past years. The results will help you decide how hot, cold, wet, or windy it might be!

Date:

Astronomy

Dec. 12, 2012 Rise Set
Actual Time 7:27 AM PST 4:11 PM PST
Civil Twilight 6:53 AM PST 4:45 PM PST
Nautical Twilight 6:15 AM PST 5:23 PM PST
Astronomical Twilight 5:39 AM PST 5:59 PM PST
Moon 6:36 AM PST (12/12) 3:54 PM PST (12/12)
Length of Visible Light 9h 52m
Length of Day
8h 43m
Waning Crescent, 0% of the Moon is Illuminated
Dec 12
Waning Crescent
Dec 13
New
Dec 19
First Quarter
Dec 28
Full
Jan 4
Last Quarter

Hourly Weather History & Observations

Time (PST) Temp. Windchill Dew Point Humidity Pressure Visibility Wind Dir Wind Speed Gust Speed Precip Events Conditions
12:53 AM 39.0 °F 34.8 °F 37.0 °F 93% 29.58 in 10.0 mi South 5.8 mph - N/A   Overcast
1:53 AM 39.0 °F 36.8 °F 36.0 °F 89% 29.60 in 10.0 mi South 3.5 mph - N/A   Overcast
2:53 AM 39.0 °F - 36.0 °F 89% 29.61 in 10.0 mi Calm Calm - N/A   Overcast
3:53 AM 37.9 °F 32.7 °F 35.1 °F 89% 29.62 in 10.0 mi SSW 6.9 mph - N/A   Overcast
4:53 AM 39.0 °F 31.0 °F 35.1 °F 86% 29.63 in 10.0 mi WSW 13.8 mph - N/A   Overcast
5:53 AM 39.0 °F 34.0 °F 34.0 °F 82% 29.67 in 10.0 mi West 6.9 mph - N/A   Overcast
6:53 AM 37.9 °F 31.5 °F 33.1 °F 83% 29.69 in 10.0 mi West 9.2 mph - N/A   Overcast
7:53 AM 39.9 °F - 32.0 °F 73% 29.71 in 10.0 mi Calm Calm - N/A   Overcast
8:53 AM 39.0 °F 35.7 °F 32.0 °F 76% 29.74 in 10.0 mi Variable 4.6 mph - N/A   Mostly Cloudy
9:53 AM 39.9 °F 35.1 °F 33.1 °F 77% 29.76 in 10.0 mi SSW 6.9 mph - N/A   Scattered Clouds
10:53 AM 42.1 °F 39.2 °F 32.0 °F 67% 29.78 in 10.0 mi SW 4.6 mph - N/A   Mostly Cloudy
11:53 AM 43.0 °F 35.1 °F 33.1 °F 68% 29.79 in 10.0 mi West 17.3 mph - N/A   Overcast
12:53 PM 43.0 °F 36.0 °F 33.1 °F 68% 29.80 in 10.0 mi West 13.8 mph - N/A   Overcast
1:53 PM 43.0 °F 37.2 °F 34.0 °F 71% 29.80 in 10.0 mi West 10.4 mph - N/A   Overcast
2:53 PM 42.1 °F 37.1 °F 34.0 °F 73% 29.82 in 10.0 mi WNW 8.1 mph - N/A   Mostly Cloudy
3:53 PM 39.9 °F 34.5 °F 32.0 °F 73% 29.85 in 10.0 mi West 8.1 mph - N/A   Overcast
4:53 PM 37.9 °F 35.5 °F 30.0 °F 73% 29.86 in 10.0 mi West 3.5 mph - N/A   Mostly Cloudy
5:53 PM 35.1 °F 27.9 °F 30.9 °F 85% 29.88 in 10.0 mi West 9.2 mph - N/A   Mostly Cloudy
6:53 PM 37.0 °F - 30.9 °F 79% 29.90 in 10.0 mi Calm Calm - N/A   Overcast
7:53 PM 37.0 °F 33.3 °F 30.9 °F 79% 29.92 in 10.0 mi South 4.6 mph - N/A   Mostly Cloudy
8:53 PM 36.0 °F 31.1 °F 32.0 °F 86% 29.94 in 10.0 mi South 5.8 mph - N/A   Overcast
9:53 PM 34.0 °F 29.8 °F 30.9 °F 89% 29.95 in 10.0 mi SSE 4.6 mph - N/A   Clear
10:53 PM 34.0 °F 29.8 °F 32.0 °F 92% 29.96 in 10.0 mi South 4.6 mph - N/A   Clear
11:53 PM 30.9 °F 27.5 °F 30.0 °F 96% 29.98 in 10.0 mi East 3.5 mph - N/A   Scattered Clouds